LVM3 R/B, 66310

Orbit data source: Space-Track

LVM3 R/B, 66310 is space debris in HEO originally from a launch on Sun, 02 Nov 2025 UTC launched from the Sirharikota (SRI). Debris objects in space refer to the collection of defunct objects orbiting the Earth. Examples of debris include non-operational satellites, rocket bodies, and fragments generated from explosions, collisions, or faulty payload assembly.

Loading next visibility...
Identifier
66310, 2025-249A
Orbit
HEO
Country
Flag of ININ / IND
Related business
Manufacturer
ISRO
Mission
Spacecraft
Bus & Motor
C25, CE-20
Mass
4,400 kg wet, 4,400 kg dry
Launch date (UTC)
2025-11-02 (8 months ago)
Launch vehicle
Unknown
Launch site
Sirharikota (SRI)
Object type
Payload
Rocket body
Debris
Shape & HBR
Cyl + 1 Nozzle, 8.0 m
Radar Cross Section
48.836 m², Large (>1 m²)

Expand to show TLE details & history
Last TLE update: 1 month ago

TLE from 1 month ago
0 LVM3 R/B
1 66310U 25249A   26136.10630122  .01967215  75855-6  12204-2 0  9999
2 66310  21.4868  34.5385 5782842  43.7199 349.7018  4.53437048  6606
Epoch: 2026-05-16T02:33Z
TLE epoch observation values (Epoch: 2026-05-16T02:33:04.425Z)
Latitude
-0.00006°
Longitude
122.43663°
Altitude
848.401 km
Speed
9.19 km/s
True Right ascension
02h 18m 07s
True Declination
0° 00' 00"
Sunlit
Object was in daylight at epoch
Visualization orbit readout
Latitude
Unknown
Longitude
Unknown
Altitude
Unknown
Speed
Unknown
Apparent Right ascension
Unknown
Apparent Declination
Unknown
Sunlit
N/A
Visualization observer readout
Local Sidereal Time
10:20:27
Azimuth
Unknown
Elevation
Unknown
Doppler factor
Unknown
Orbital elements
Apogee altitude
17,964.129 km
Perigee altitude
126.09 km
Semi-major axis
15,423.246 km
Eccentricity
0.57828
Inclination
21.4868°
RAAN
34.5385°
Arg. of periapsis
43.7199°
True anomaly
316.12417°
Mean anomaly
349.7018°
Eccentric anomaly
336.4786°
Mean motion
1.13313 °/min
Orbital period
317.7 mins
BSTAR
0.0012204
Loading maneuver chart data...
Computing Atmospheric mass density...
Loading historical data...
Loading historical data...
Loading historical data...
Loading historical data...
Loading historical data...
Loading historical data...
Loading historical data...
Other satellites on launch #249 in the year 2025 (2025-11-02 UTC)

Documentation

Showing up to 5 results
|